Weather History for Lorain / Elyria, OH

Change the Weather History Date:

Tuesday, December 3, 2013

  Actual Average (KCLE) Record (KCLE)
Temperature  
Mean Temperature 42 °F 37 °F  
Max Temperature 52 °F 43 °F 77 °F (1982)
Min Temperature 33 °F 31 °F -7 °F (1976)
Degree Days  
Heating Degree Days 22 28  
Month to date heating degree days 83  
Since 1 July heating degree days 1178  
Cooling Degree Days 0 0  
Month to date cooling degree days 0  
Year to date cooling degree days 817  
Moisture  
Dew Point 34 °F    
Average Humidity 75    
Maximum Humidity 85    
Minimum Humidity 61    
Precipitation  
Precipitation 0.00 in 0.10 in 1.33 in (1990)
Month to date precipitation 0.31  
Year to date precipitation 36.35  
Snow  
Snow 0.00 in 0.30 in - ()
Month to date snowfall 0.9  
Since 1 July snowfall 5.4  
Snow Depth -    
Sea Level Pressure  
Sea Level Pressure 29.89 in    
Wind  
Wind Speed 5 mph (SE)    
Max Wind Speed 9 mph    
Max Gust Speed -    
Visibility 6 miles    
Events      
T = Trace of Precipitation, MM = Missing Value Source: NWS Daily Summary

Daily Weather History Graph

Daily Weather History Graph

Search for Another Location

Airport:

Trip Planner

Search our weather history database for the weather conditions in past years. The results will help you decide how hot, cold, wet, or windy it might be!

Date:

Astronomy

Dec. 03, 2013 Rise Set
Actual Time 7:37 AM EST 4:59 PM EST
Civil Twilight 7:06 AM EST 5:30 PM EST
Nautical Twilight 6:32 AM EST 6:04 PM EST
Astronomical Twilight 5:58 AM EST 6:38 PM EST
Moon 8:05 AM EST (12/3) 6:02 PM EST (12/3)
Length of Visible Light 10h 23m
Length of Day
9h 22m
New Moon, 1% of the Moon is Illuminated
Dec 3
New Moon
Dec 9
First Quarter
Dec 17
Full
Dec 25
Last Quarter
Jan 1
New

Hourly Weather History & Observations

Time (EST) Temp. Windchill Dew Point Humidity Pressure Visibility Wind Dir Wind Speed Gust Speed Precip Events Conditions
12:53 AM 34.0 °F 28.8 °F 30.0 °F 85% 29.90 in 5.0 mi East 5.8 mph - N/A   Overcast
1:53 AM 34.0 °F 29.8 °F 30.0 °F 85% 29.89 in 6.0 mi East 4.6 mph - N/A   Overcast
2:53 AM 34.0 °F - 28.9 °F 82% 29.91 in 7.0 mi Calm Calm - N/A   Overcast
3:43 AM 33.8 °F 29.6 °F 28.4 °F 81% 29.88 in 6.0 mi ESE 4.6 mph - N/A   Haze
3:53 AM 35.1 °F 31.0 °F 30.0 °F 82% 29.90 in 6.0 mi ESE 4.6 mph - N/A   Haze
4:16 AM 33.8 °F 29.6 °F 28.4 °F 81% 29.87 in 6.0 mi East 4.6 mph - N/A   Haze
4:53 AM 34.0 °F - 28.9 °F 82% 29.90 in 7.0 mi Calm Calm - N/A   Overcast
5:53 AM 35.1 °F 31.0 °F 30.0 °F 82% 29.91 in 7.0 mi East 4.6 mph - N/A   Overcast
6:53 AM 35.1 °F 31.0 °F 28.9 °F 78% 29.90 in 8.0 mi SE 4.6 mph - N/A   Overcast
7:43 AM 35.6 °F 32.8 °F 28.4 °F 75% 29.88 in 7.0 mi ESE 3.5 mph - N/A   Overcast
7:53 AM 35.1 °F 31.0 °F 30.0 °F 82% 29.91 in 6.0 mi ESE 4.6 mph - N/A   Haze
8:53 AM 36.0 °F 33.3 °F 30.0 °F 79% 29.92 in 7.0 mi ESE 3.5 mph - N/A   Overcast
9:09 AM 37.4 °F 33.8 °F 30.2 °F 75% 29.89 in 6.0 mi ESE 4.6 mph - N/A   Haze
9:50 AM 37.4 °F - 30.2 °F 75% 29.90 in 7.0 mi Calm Calm - N/A   Overcast
9:53 AM 37.9 °F 35.5 °F 30.9 °F 76% 29.92 in 7.0 mi East 3.5 mph - N/A   Overcast
10:33 AM 39.2 °F 34.2 °F 30.2 °F 70% 29.90 in 7.0 mi ESE 6.9 mph - N/A   Overcast
10:53 AM 42.1 °F 38.4 °F 33.1 °F 70% 29.92 in 6.0 mi SE 5.8 mph - N/A   Haze
11:53 AM 44.1 °F 41.5 °F 34.0 °F 68% 29.89 in 6.0 mi South 4.6 mph - N/A   Haze
12:53 PM 48.9 °F - 37.0 °F 64% 29.89 in 7.0 mi Variable 5.8 mph - N/A   Overcast
1:53 PM 50.0 °F - 39.0 °F 66% 29.88 in 6.0 mi South 3.5 mph - N/A   Haze
2:53 PM 52.0 °F - 39.0 °F 61% 29.86 in 6.0 mi South 4.6 mph - N/A   Haze
3:53 PM 51.1 °F - 39.9 °F 66% 29.84 in 6.0 mi SSE 9.2 mph - N/A   Haze
4:53 PM 48.9 °F - 39.0 °F 69% 29.87 in 6.0 mi South 4.6 mph - N/A   Haze
5:53 PM 46.9 °F - 39.0 °F 74% 29.88 in 7.0 mi SSE 5.8 mph - N/A   Scattered Clouds
6:53 PM 46.9 °F - 39.0 °F 74% 29.88 in 6.0 mi SSE 6.9 mph - N/A   Haze
7:53 PM 45.0 °F 41.8 °F 39.0 °F 80% 29.88 in 5.0 mi SSE 5.8 mph - N/A   Haze
8:53 PM 46.0 °F 43.1 °F 39.0 °F 76% 29.86 in 6.0 mi SE 5.8 mph - N/A   Haze
9:53 PM 46.0 °F 42.5 °F 39.0 °F 76% 29.86 in 6.0 mi South 6.9 mph - N/A   Haze
10:53 PM 46.9 °F - 39.0 °F 74% 29.86 in 7.0 mi South 6.9 mph - N/A   Overcast
11:53 PM 46.9 °F - 39.0 °F 74% 29.88 in 6.0 mi South 6.9 mph - N/A   Haze